Sanford, ME

4:01 AM EDT on March 30, 2017 (GMT -0400)
Sanford Regional

Weather History for KSFM - February, 2014

Change the Weather History Date:

Tuesday, February 11, 2014

  Actual Average Record
Temperature  
Mean Temperature 2 °F -  
Max Temperature 19 °F 31 °F 55 °F (2009)
Min Temperature -14 °F 11 °F -14 °F (2014)
Degree Days  
Heating Degree Days 62    
Moisture  
Dew Point -7 °F    
Average Humidity 55    
Maximum Humidity 100    
Minimum Humidity 30    
Precipitation  
Precipitation 0.00 in - - ()
Sea Level Pressure  
Sea Level Pressure 30.24 in    
Wind  
Wind Speed 6 mph (West)    
Max Wind Speed 18 mph    
Max Gust Speed 28 mph    
Visibility 9 miles    
Events      
Averages and records for this station are not official NWS values.
T = Trace of Precipitation, MM = Missing Value Source: NWS Daily Summary

Daily Weather History Graph

Daily Weather History Graph

Search for Another Location

Airport or City:

Trip Planner

Search our weather history database for the weather conditions in past years. The results will help you decide how hot, cold, wet, or windy it might be!

Date:

Astronomy

Feb. 11, 2014 Rise Set
Actual Time 6:46 AM EST 5:08 PM EST
Civil Twilight 6:17 AM EST 5:37 PM EST
Nautical Twilight 5:43 AM EST 6:11 PM EST
Astronomical Twilight 5:10 AM EST 6:44 PM EST
Moon 2:23 PM EST (2/11) 4:23 AM EST (2/11)
Length of Visible Light 11h 20m
Length of Day
10h 21m
Waxing Gibbous, 90% of the Moon is Illuminated
Feb 11
Waxing Gibbous
Feb 14
Full
Feb 22
Last Quarter
Mar 1
New
Mar 8
First Quarter

Hourly Weather History & Observations

Time (EST) Temp. Windchill Dew Point Humidity Pressure Visibility Wind Dir Wind Speed Gust Speed Precip Events Conditions
12:15 AM -4.0 °F -12.4 °F -11.2 °F 71% 30.16 in 10.0 mi WNW 3.5 mph - N/A   Clear
12:35 AM -2.2 °F - -2.2 °F 100% 30.16 in 10.0 mi Calm Calm - N/A   Clear
12:55 AM -5.8 °F -16.7 °F -20.2 °F 50% 30.16 in 10.0 mi WSW 4.6 mph - N/A   Clear
1:15 AM -5.8 °F - -14.8 °F 65% 30.16 in 10.0 mi Calm Calm - N/A   Clear
1:35 AM -9.4 °F -22.7 °F -13.0 °F 84% 30.17 in 10.0 mi WSW 5.8 mph - N/A   Clear
1:55 AM -7.6 °F - -18.4 °F 59% 30.17 in 10.0 mi Calm Calm - N/A   Clear
2:15 AM -9.4 °F - -9.4 °F 100% 30.17 in 10.0 mi Calm Calm - N/A   Clear
2:35 AM -9.4 °F -20.9 °F -13.0 °F 84% 30.17 in 10.0 mi WSW 4.6 mph - N/A   Clear
2:55 AM -7.6 °F - -13.0 °F 77% 30.17 in 10.0 mi Calm Calm - N/A   Clear
3:15 AM -9.4 °F - -14.8 °F 77% 30.17 in 10.0 mi Calm Calm - N/A   Clear
3:35 AM -11.2 °F - -20.2 °F 64% 30.17 in 10.0 mi Calm Calm - N/A   Clear
3:55 AM -11.2 °F - -14.8 °F 84% 30.17 in 10.0 mi Calm Calm - N/A   Clear
4:15 AM -11.2 °F - -18.4 °F 70% 30.18 in 10.0 mi Calm Calm - N/A   Clear
4:35 AM -11.2 °F - -16.6 °F 77% 30.19 in 10.0 mi Calm Calm - N/A   Clear
4:55 AM -11.2 °F - -25.6 °F 49% 30.19 in 10.0 mi Calm Calm - N/A   Clear
5:15 AM -11.2 °F - -14.8 °F 84% 30.19 in 10.0 mi Calm Calm - N/A   Clear
5:35 AM -13.0 °F - - N/A% 30.20 in 10.0 mi Calm Calm - N/A   Clear
5:55 AM -13.0 °F - -16.6 °F 84% 30.20 in 10.0 mi Calm Calm - N/A   Clear
6:15 AM -11.2 °F - -29.2 °F 41% 30.20 in 10.0 mi Calm Calm - N/A   Clear
6:35 AM -14.8 °F -30.8 °F -20.2 °F 77% 30.21 in 10.0 mi West 6.9 mph - N/A   Clear
6:55 AM -14.8 °F -30.8 °F -29.2 °F 48% 30.21 in 10.0 mi West 6.9 mph - N/A   Clear
7:15 AM -11.2 °F -27.8 °F -18.4 °F 70% 30.22 in 10.0 mi WSW 8.1 mph - N/A   Clear
7:35 AM -0.4 °F -14.7 °F -25.6 °F 30% 30.22 in 10.0 mi West 8.1 mph - N/A   Clear
7:55 AM 5.0 °F -5.6 °F -9.4 °F 52% 30.22 in 10.0 mi West 5.8 mph - N/A   Clear
8:15 AM 10.4 °F -0.4 °F -0.4 °F 62% 30.23 in 10.0 mi WNW 6.9 mph - N/A   Clear
8:35 AM 12.2 °F 0.7 °F 6.8 °F 79% 30.23 in 10.0 mi West 8.1 mph - N/A   Clear
8:55 AM 14.0 °F 0.5 °F 1.4 °F 57% 30.23 in 10.0 mi WNW 11.5 mph 18.4 mph N/A   Clear
9:15 AM 15.8 °F 2.7 °F 3.2 °F 58% 30.23 in 10.0 mi West 11.5 mph 16.1 mph N/A   Clear
9:35 AM 15.8 °F 1.4 °F 1.4 °F 53% 30.23 in 10.0 mi West 13.8 mph - N/A   Clear
9:55 AM 17.6 °F 5.0 °F 3.2 °F 53% 30.24 in 10.0 mi West 11.5 mph 17.3 mph N/A   Clear
10:15 AM 17.6 °F 5.0 °F 1.4 °F 49% 30.24 in 10.0 mi West 11.5 mph 19.6 mph N/A   Clear
10:35 AM 17.6 °F 3.2 °F 3.2 °F 53% 30.24 in 10.0 mi West 15.0 mph 18.4 mph N/A   Clear
10:55 AM 17.6 °F 1.7 °F -0.4 °F 45% 30.24 in 0.5 mi West 18.4 mph 21.9 mph N/A   Unknown
11:15 AM 19.4 °F 5.5 °F 1.4 °F 46% 30.23 in 2.0 mi West 15.0 mph 23.0 mph N/A   Clear
11:35 AM 19.4 °F 5.0 °F -0.4 °F 42% 30.23 in 1.0 mi West 16.1 mph 24.2 mph N/A   Clear
11:55 AM 19.4 °F 4.1 °F 1.4 °F 46% 30.22 in 1.0 mi West 18.4 mph 23.0 mph N/A   Clear
12:15 PM 19.4 °F 5.5 °F -0.4 °F 42% 30.22 in 3.0 mi West 15.0 mph 18.4 mph N/A   Clear
12:35 PM 19.4 °F 5.5 °F 1.4 °F 46% 30.21 in 9.0 mi West 15.0 mph 20.7 mph N/A   Clear
12:55 PM 19.4 °F 4.5 °F -2.2 °F 39% 30.20 in 3.0 mi West 17.3 mph 23.0 mph N/A   Clear
1:15 PM 19.4 °F 7.2 °F 1.4 °F 46% 30.20 in 10.0 mi West 11.5 mph 19.6 mph N/A   Clear
1:35 PM 19.4 °F 6.0 °F -0.4 °F 42% 30.20 in 8.0 mi West 13.8 mph 21.9 mph N/A   Clear
1:55 PM 19.4 °F 7.2 °F -0.4 °F 42% 30.20 in 4.0 mi WNW 11.5 mph 24.2 mph N/A   Clear
2:15 PM 19.4 °F 5.5 °F -0.4 °F 42% 30.20 in 10.0 mi WNW 15.0 mph 21.9 mph N/A   Clear
2:35 PM 19.4 °F 7.2 °F -0.4 °F 42% 30.20 in 8.0 mi WNW 11.5 mph 20.7 mph N/A   Clear
2:55 PM 19.4 °F 5.0 °F -0.4 °F 42% 30.21 in 3.0 mi WNW 16.1 mph 24.2 mph N/A   Clear
3:15 PM 19.4 °F 5.5 °F -0.4 °F 42% 30.21 in 10.0 mi West 15.0 mph 20.7 mph N/A   Clear
3:35 PM 19.4 °F 5.0 °F -0.4 °F 42% 30.22 in 7.0 mi West 16.1 mph 24.2 mph N/A   Clear
3:55 PM 19.4 °F 6.6 °F -2.2 °F 39% 30.22 in 7.0 mi West 12.7 mph 27.6 mph N/A   Clear
4:15 PM 19.4 °F 4.5 °F -0.4 °F 42% 30.23 in 10.0 mi West 17.3 mph - N/A   Clear
4:35 PM 19.4 °F 5.0 °F -2.2 °F 39% 30.23 in 10.0 mi West 16.1 mph 19.6 mph N/A   Clear
4:55 PM 17.6 °F 4.3 °F -0.4 °F 45% 30.25 in 10.0 mi West 12.7 mph 18.4 mph N/A   Clear
5:15 PM 17.6 °F 5.7 °F -2.2 °F 42% 30.26 in 10.0 mi West 10.4 mph 21.9 mph N/A   Clear
5:35 PM 17.6 °F 8.2 °F -0.4 °F 45% 30.27 in 10.0 mi West 6.9 mph 17.3 mph N/A   Clear
5:55 PM 15.8 °F 4.2 °F -0.4 °F 49% 30.28 in 10.0 mi WNW 9.2 mph - N/A   Clear
6:15 PM 15.8 °F 5.1 °F -2.2 °F 45% 30.29 in 10.0 mi WNW 8.1 mph - N/A   Clear
6:35 PM 15.8 °F 6.1 °F -0.4 °F 49% 30.29 in 10.0 mi WNW 6.9 mph - N/A   Clear
6:55 PM 15.8 °F 5.1 °F -2.2 °F 45% 30.30 in 10.0 mi WNW 8.1 mph - N/A   Clear
7:15 PM 15.8 °F 3.4 °F -0.4 °F 49% 30.31 in 10.0 mi WNW 10.4 mph - N/A   Clear
7:35 PM 14.0 °F 3.9 °F -2.2 °F 49% 30.32 in 10.0 mi WNW 6.9 mph - N/A   Clear
7:55 PM 12.2 °F 1.7 °F -2.2 °F 53% 30.32 in 10.0 mi WNW 6.9 mph - N/A   Clear
8:15 PM 12.2 °F 1.7 °F -4.0 °F 48% 30.33 in 10.0 mi WNW 6.9 mph - N/A   Clear
8:35 PM 12.2 °F 2.9 °F -2.2 °F 53% 30.34 in 10.0 mi NW 5.8 mph - N/A   Clear
8:55 PM 12.2 °F 4.3 °F -4.0 °F 48% 30.34 in 10.0 mi WNW 4.6 mph - N/A   Clear
9:15 PM 10.4 °F 2.2 °F -5.8 °F 48% 30.35 in 10.0 mi West 4.6 mph - N/A   Clear
9:35 PM 6.8 °F -0.1 °F -9.4 °F 48% 30.36 in 10.0 mi NW 3.5 mph - N/A   Clear
9:55 PM 6.8 °F - -7.6 °F 52% 30.36 in 10.0 mi Calm Calm - N/A   Clear
10:15 PM 1.4 °F -8.3 °F -5.8 °F 72% 30.36 in 10.0 mi WNW 4.6 mph - N/A   Clear
10:35 PM 1.4 °F -9.9 °F -20.2 °F 36% 30.37 in 10.0 mi West 5.8 mph - N/A   Clear
10:55 PM 5.0 °F -4.1 °F 1.4 °F 85% 30.37 in 10.0 mi WNW 4.6 mph - N/A   Clear
11:15 PM -4.0 °F -12.4 °F -27.4 °F 32% 30.37 in 10.0 mi West 3.5 mph - N/A   Clear
11:35 PM -0.4 °F -10.4 °F -7.6 °F 72% 30.38 in 10.0 mi WNW 4.6 mph - N/A   Clear
11:55 PM -5.8 °F -16.7 °F -25.6 °F 38% 30.38 in 10.0 mi West 4.6 mph - N/A   Clear